On January 22, 2015 I requested comments on discontinuing the AMSAT
verbose format and the comments that I have received to date indicate
that very few people would be affected by this change. The AMSAT
verbose format has out lived its usefulness. Those that are affected
by this change are considering work-arounds to allow them to use the
NASA 2-line (TLE) format. Note that most satellite tracking programs
readily accept the NASA 2-line (TLE) format if the correct upload
options are chosen.
The NASA 2-line elements will continue being sent each week as they
are now. In effect, the weekly email that you now receive will
consist only of one email entitled orbYYDDD.2l.amsat (for example).
The YY in the email title is the year (15 for 2015) and DDD is the
Julian day of the year (022 for January 22nd).
The email entitled orbYYDDD.amsat (for example) will NOT be sent.
One more time, the weekly NASA 2-line element (NASA TLE) format email
will continue to be sent each week as usual.
Joe Fitzgerald notes that another source of current Keplerian 2-line
data (TLE) is now available. The following URL has current data for
the AMSAT satellite list including the ISS and is updated at least
daily using the latest ISS elements from Johnson Spaceflight Center.
http://www.amsat.org/amsat/ftp/keps/current/nasabare.txt
New satellites are added as soon as possible - so there is no need
to wait for the Thursday bulletin if you need an update right now.
Ray Hoad
WA5QGD
1
0
SB KEPS @ AMSAT $ORB15092.N
2Line Orbital Elements 15092.AMSAT
HR AMSAT ORBITAL ELEMENTS FOR AMATEUR SATELLITES IN NASA FORMAT
FROM WA5QGD FORT WORTH,TX April 2, 2015
BID: ORB15092.N
DECODE 2-LINE ELSETS WITH THE FOLLOWING KEY:
1 AAAAAU 00 0 0 BBBBB.BBBBBBBB .CCCCCCCC 00000-0 00000-0 0 DDDZ
2 AAAAA EEE.EEEE FFF.FFFF GGGGGGG HHH.HHHH III.IIII JJ.JJJJJJJJKKKKKZ
KEY: A-CATALOGNUM B-EPOCHTIME C-DECAY D-ELSETNUM E-INCLINATION F-RAAN
G-ECCENTRICITY H-ARGPERIGEE I-MNANOM J-MNMOTION K-ORBITNUM Z-CHECKSUM
TO ALL RADIO AMATEURS BT
AO-07
1 07530U 74089B 15091.86818647 -.00000033 00000-0 63482-4 0 9991
2 07530 101.5133 069.6137 0012398 091.5157 335.3036 12.53613123847698
FO-29
1 24278U 96046B 15091.90527514 .00000012 00000-0 51615-4 0 9992
2 24278 098.5325 071.0429 0349362 268.6101 116.1450 13.53048420919716
SO-33
1 25509U 98061B 15091.98728889 .00001262 00000-0 23641-3 0 9990
2 25509 031.4319 323.5823 0347958 125.3391 238.0273 14.29939131858503
RS-22
1 27939U 03042A 15092.86176926 .00001458 00000-0 27479-3 0 9991
2 27939 097.8341 258.1488 0012005 268.3028 091.6806 14.65909693615157
HO-68
1 36122U 09072B 15092.69356043 -.00000060 00000-0 -43517-4 0 9997
2 36122 100.2043 140.1639 0006936 293.2337 066.8046 13.16325374254526
AO-73
1 39444U 13066AE 15092.44472978 .00003358 00000-0 43799-3 0 9996
2 39444 097.7381 157.9674 0060590 024.0553 336.3468 14.79906038 72211
EO-79
1 40025U 14033R 15092.78365028 .00003420 00000-0 38927-3 0 9999
2 40025 097.9587 352.9280 0014785 071.7588 288.5238 14.86803086 42598
UO-11
1 14781U 84021B 15092.09418387 .00001385 00000-0 17990-3 0 9999
2 14781 097.8104 151.0212 0007674 327.3385 032.7352 14.82262917670758
AO-16
1 20439U 90005D 15092.77514469 .00000302 00000-0 12733-3 0 9996
2 20439 098.5359 030.0986 0011465 029.1160 029.3340 14.32514411315940
LO-19
1 20442U 90005G 15092.43044651 .00000270 00000-0 11522-3 0 9993
2 20442 098.5070 029.5446 0012206 018.3211 341.8411 14.32708612316095
AO-27
1 22825U 93061C 15092.50242249 .00000228 00000-0 10605-3 0 9990
2 22825 098.7012 042.6241 0008621 162.9006 317.0964 14.29855904122123
IO-26
1 22826U 93061D 15091.85279795 .00000262 00000-0 11833-3 0 9996
2 22826 098.6953 042.1520 0009248 157.4613 202.6977 14.30169839122176
GO-32
1 25397U 98043D 15091.84142741 .00000136 00000-0 78250-4 0 9993
2 25397 098.5120 044.7100 0001529 141.0146 271.8200 14.23530286868931
NO-44
1 26931U 01043C 15091.86215059 .00000282 00000-0 14043-3 0 9998
2 26931 067.0533 013.9703 0006336 264.0933 095.9446 14.30283714704882
SO-50
1 27607U 02058C 15092.35568676 .00002164 00000-0 32930-3 0 9993
2 27607 064.5556 070.3208 0077503 303.2243 056.1445 14.74582769660105
CO-55
1 27844U 03031E 15092.62385821 .00000489 00000-0 24193-3 0 9997
2 27844 098.6972 102.2259 0010255 153.2261 321.5512 14.21752637609701
CO-57
1 27848U 03031J 15091.98150860 .00000429 00000-0 21629-3 0 9997
2 27848 098.7068 101.4601 0009989 161.9046 262.3540 14.21405832609528
AO-51
1 28375U 04025K 15092.79721286 .00000338 00000-0 11282-3 0 9996
2 28375 098.2866 035.4351 0082374 196.4987 163.3520 14.41620210565620
CP3
1 31129U 07012N 15092.86743765 .00001519 00000-0 33693-3 0 9992
2 31129 097.9731 061.9404 0096556 187.6836 233.2755 14.55626802422169
CO-65
1 32785U 08021C 15092.20197818 .00002708 00000-0 31095-3 0 9997
2 32785 097.6583 138.5409 0012404 322.5153 129.9270 14.86586997374947
PRISM
1 33493U 09002B 15092.82966319 .00007212 00000-0 70513-3 0 9995
2 33493 098.2535 286.5805 0016125 214.0175 146.0029 14.92581789335338
SOHLA-1
1 33496U 09002E 15091.87904517 .00000973 00000-0 16581-3 0 9996
2 33496 098.1998 219.1689 0007251 054.0700 058.3925 14.71269359331958
TISAT-1
1 36799U 10035E 15092.85645701 .00005753 00000-0 63168-3 0 9993
2 36799 098.0125 192.4006 0014399 095.3704 028.1509 14.87996495255758
STUDSAT
1 36801U 10035G 15092.83086090 .00033880 00000-0 21605-2 0 9996
2 36801 098.0536 208.3175 0004936 042.3146 071.1123 15.08619386256598
ALMASAT-1
1 38078U 12006B 15090.22919962 .00075054 40943-5 13267-2 0 9997
2 38078 069.4556 076.2850 0504959 004.7458 355.8207 14.72315366163537
XATCOBEO
1 38082U 12006F 14243.34478676 .13583328 43697-5 37939-3 0 9990
2 38082 069.3815 097.0364 0033293 225.1799 135.4582 16.41261006136239
CUBEBUG-1
1 39153U 13018D 15092.79163934 .00002905 00000-0 39966-3 0 9995
2 39153 098.0189 177.3804 0018511 134.4359 225.8370 14.78963731104330
ESTCUBE-1
1 39161U 13021C 15092.76921069 .00001989 00000-0 33239-3 0 9994
2 39161 098.0726 176.3596 0009573 187.4028 172.7037 14.70957224102152
DUCHIFAT-1
1 40021U 14033M 15092.78306421 .00005072 00000-0 56403-3 0 9991
2 40021 097.9614 353.1485 0015501 073.4539 286.8396 14.87519314 42592
NANOSATCBR1
1 40024U 14033Q 15092.68623780 .00004271 00000-0 48024-3 0 9993
2 40024 097.9593 352.9029 0014616 070.1614 290.1211 14.87167563 42573
DTUSAT-2
1 40030U 14033W 15092.65499815 .00003443 00000-0 39560-3 0 9992
2 40030 097.9568 352.5944 0014049 067.3622 292.9073 14.86414905 42560
ANTELSAT
1 40034U 14033AA 15092.68799062 .00002931 00000-0 45692-3 0 9990
2 40034 097.9529 346.3697 0060849 002.9697 357.1874 14.72448999 42189
MET-2/21
1 22782U 93055A 15092.09399038 .00000065 00000-0 45493-4 0 9991
2 22782 082.5475 304.0594 0022476 171.4314 299.4369 13.83764456 90076
OKEAN-4
1 23317U 94066A 15092.51625635 .00001898 00000-0 21132-3 0 9999
2 23317 082.5391 156.5002 0019365 216.6141 275.2887 14.86481827106072
NOAA-14
1 23455U 94089A 15092.48650618 .00000067 00000-0 58042-4 0 9990
2 23455 098.7544 175.4879 0008488 298.9064 131.2518 14.14030904 44831
NOAA-15
1 25338U 98030A 15092.49731840 .00000321 00000-0 15460-3 0 9999
2 25338 098.7712 091.0912 0011249 033.8767 326.3129 14.25590999878057
RESURS
1 25394U 98043A 15091.85585392 .00000077 00000-0 51512-4 0 9990
2 25394 098.4569 049.7258 0002306 114.4750 298.6070 14.24450070869411
